Regional Weather Roundup
Issued by NWS

Home | Current Version | Previous Version | Graphics & Text | Print | Product List | Glossary On
Versions: 1 2 3 4 5 6 7 8 9 10 11 12 13 14 15 16 17 18 19 20 21 22 23 24 25 26 27 28 29 30 31 32 33 34 35 36 37 38 39 40 41 42 43 44 45 46 47 48 49 50
000
ASUS43 KIND 241759
RWRIN

WEATHER ROUNDUP FOR INDIANA
NATIONAL WEATHER SERVICE INDIANAPOLIS IN
200 PM EDT MON APR 24 2017

NOTE: "FAIR" INDICATES FEW OR NO CLOUDS BELOW 12,000 FEET WITH NO
SIGNIFICANT WEATHER AND/OR OBSTRUCTIONS TO VISIBILITY.

* - STATION DOES NOT REPORT WEATHER SUCH AS PRECIPITATION OR FOG.

+ - STATION NOT QUALITY CONTROLLED BY THE NATIONAL WEATHER SERVICE.
    USE DATA WITH CAUTION...ESPECIALLY DEWPOINT AND RELATIVE
    HUMIDITY OBSERVATIONS.

INZ001>003-010>013-019-020-241900-
NORTHWEST INDIANA

CITY           SKY/WX    TMP DP  RH WIND       PRES   REMARKS
GARY /AIRPORT/ PTSUNNY   63  37  39 CALM      29.96F
KNOX *+        SUNNY    N/A N/A N/A E12       29.95F
MONTICELLO +   SUNNY     71  25  18 E7        29.93F
6HR MIN TEMP:  47; 6HR MAX TEMP:  71;


$$

LMZ046-743>745-241900-
SOUTHERN LAKE MICHIGAN

STATION/POSITION TIME  TEMP    WIND        PRES    WAVE
                       AIR SEA DIR/SP/G            HT
                 (UTC) (F)     (DEG/KT/KT) (MB)    (FT)
BURNS HARBOR     1740   51        CALM     1014.9F
MICHIGAN CITY    1730   67     110/ 11/ 13   N/A

$$

INZ004-005-014>016-021>024-241900-
NORTH CENTRAL INDIANA

CITY           SKY/WX    TMP DP  RH WIND       PRES   REMARKS
GOSHEN         SUNNY     69  31  24 E12       29.96F
6HR MIN TEMP:  44; 6HR MAX TEMP:  69;

PERU/GRISSOM   SUNNY     71  34  25 E15       29.92F
6HR MIN TEMP:  47; 6HR MAX TEMP:  71;

SOUTH BEND     SUNNY     69  28  21 E13       29.97F
6HR MIN TEMP:  43; 6HR MAX TEMP:  70;

WARSAW +       SUNNY     70  34  26 E9G18     29.95F

$$

INZ006>009-017-018-025>027-241900-
NORTHEAST INDIANA

CITY           SKY/WX    TMP DP  RH WIND       PRES   REMARKS
ANGOLA *+      SUNNY     68  37  32 SE12      29.98F
AUBURN +       SUNNY     68  36  30 E12G21    29.98F
FORT WAYNE     PTSUNNY   70  40  33 E16G24    29.97F
6HR MIN TEMP:  46; 6HR MAX TEMP:  70;

HUNTINGTON +   SUNNY     69  36  29 E12G18    29.95F
6HR MIN TEMP:  45; 6HR MAX TEMP:  69;

KENDALLVILLE + SUNNY     68  38  33 SE14G22   29.98F

$$

INZ028-029-035-036-043>045-051>053-241900-
WEST CENTRAL INDIANA

CITY           SKY/WX    TMP DP  RH WIND       PRES   REMARKS
CRAWFORDSVL +  SUNNY     71  34  26 NE13      29.91F
6HR MIN TEMP:  44; 6HR MAX TEMP:  71;

GREENCASTLE +  SUNNY     70  34  26 NE12      29.90F
LAFAYETTE      NOT AVBL
TERRE HAUTE    SUNNY     74  32  21 E15       29.88F
6HR MIN TEMP:  47; 6HR MAX TEMP:  74;


$$

INZ030>032-037>040-046>048-054>057-064-065-241900-
CENTRAL INDIANA

CITY           SKY/WX    TMP DP  RH WIND       PRES   REMARKS
CP ATTERBURY + SUNNY     70  34  26 E8G20     29.89F
FRANKFORT +    SUNNY     75  29  18 E13       29.94F
6HR MIN TEMP:  47; 6HR MAX TEMP:  76;

GREENWOOD *+   SUNNY     73  31  20 E13G18    29.89F
6HR MIN TEMP:  50; 6HR MAX TEMP:  73;

INDIANAPOLIS   MOSUNNY   73  34  23 E10G23    29.89F
6HR MIN TEMP:  49; 6HR MAX TEMP:  73;

-EAGLE CREEK   SUNNY     73  33  23 NE12      29.90F
6HR MIN TEMP:  51; 6HR MAX TEMP:  73;

KOKOMO +       SUNNY     71  35  26 E15G24    29.94F
6HR MIN TEMP:  45; 6HR MAX TEMP:  71;

SHELBYVILLE    SUNNY     76  34  21 NE15      29.88F
6HR MIN TEMP:  51; 6HR MAX TEMP:  76;


$$

INZ033-034-041-042-049-050-058-059-241900-
EAST CENTRAL INDIANA

CITY           SKY/WX    TMP DP  RH WIND       PRES   REMARKS
MUNCIE         SUNNY     73  32  22 NE17G23   29.92F
6HR MIN TEMP:  46; 6HR MAX TEMP:  74;

RICHMOND +     SUNNY     70  45  40 E15G22    29.90F

$$

INZ060-061-067>069-081>083-085>088-241900-
SOUTHWEST INDIANA

CITY           SKY/WX    TMP DP  RH WIND       PRES   REMARKS
EVANSVILLE     SUNNY     74  41  30 E7        29.86F
6HR MIN TEMP:  53; 6HR MAX TEMP:  75;

HUNTINGBURG *+ SUNNY     71  48  43 VRB7      29.85
6HR MIN TEMP:  51; 6HR MAX TEMP:  71;


$$

INZ062-063-066-070>080-084-089>092-241900-
SOUTH CENTRAL AND SOUTHEAST INDIANA

CITY           SKY/WX    TMP DP  RH WIND       PRES   REMARKS
BLOOMINGTON    SUNNY     73  30  20 E15G24    29.87F
6HR MIN TEMP:  51; 6HR MAX TEMP:  73;

MADISON *+     SUNNY     70  41  35 NE9       29.87F
SEYMOUR +      SUNNY     73  41  31 NE10      29.86F

$$





USA.gov is the U.S. government's official web portal to all federal, state and local government web resources and services.